DECAYED

STARLINK-3104, 49150 (Decayed)

Orbit data source: Space-Track

STARLINK-3104, 49150 was a payload satellite owned by SpaceX/Seattle (US) in LEO that was launched on Tue, 14 Sep 2021 UTC via an FALCON 9 launch vehicle from the Air Force Western Test Range (AFWTR). Payload-class satellites include a variety of spacecraft equipped with specific instruments for various scientific and technological missions. These include communications satellites like Starlink; space stations such as the ISS; scientific satellites like the Hubble; Earth observation satellites from companies like Planet Labs, Umbra, and HawkEye 360; GPS; miniature CubeSats for education and research; and military/defense satellites.

Not visible in the next 10 days
Identifier
49150, 2021-082W
Orbit
Decayed
Country
Flag of USUS
Related business
Manufacturer
SpaceX/Seattle
Mission
Decayed Commercial Communications
Bus & Motor
STARLINK, Unknown motor
Mass
297 kg wet, ~275 kg dry
Launch date (UTC)
2021-09-14 (4 years ago)
Launch vehicle
FALCON 9
Launch site
Air Force Western Test Range (AFWTR)
Object type
Payload
Rocket body
Debris
Shape & HBR
Box + 1 Pan, 10.1 m
Radar Cross Section
13.562 m², Large (>1 m²)

Expand to show TLE details & history
Last TLE update: 6 months ago

TLE from 6 months ago
0 STARLINK-3104
1 49150U 21082W   25109.22900718  .17968081  44585-5  27926-3 0  9998
2 49150  69.9786  18.4731 0011086 248.2116 214.3536 16.47722106198929
Epoch: 2025-04-19T05:29Z
TLE epoch observation values (Epoch: 2025-04-19T05:29:46.220Z)
Latitude
66.64945°
Longitude
-148.60062°
Altitude
162.201 km
Speed
7.812 km/s
True Right ascension
09h 25m 40s
True Declination
66° 30' 45"
Sunlit
Object was in daylight at epoch
Visualization orbit readout
Latitude
Unknown
Longitude
Unknown
Altitude
Unknown
Speed
Unknown
Apparent Right ascension
Unknown
Apparent Declination
Unknown
Sunlit
N/A
Visualization observer readout
Local Sidereal Time
19:54:02
Azimuth
Unknown
Elevation
Unknown
Doppler factor
Unknown
Orbital elements
Apogee altitude
150.386 km
Perigee altitude
135.927 km
Semi-major axis
6,521.294 km
Eccentricity
0.00111
Inclination
69.9786°
RAAN
18.4731°
Arg. of periapsis
248.2116°
True anomaly
214.282°
Mean anomaly
214.3536°
Eccentric anomaly
214.31779°
Mean motion
4.12138 °/min
Orbital period
87.35 mins
BSTAR
0.00027926
Loading maneuver chart data...
Computing Atmospheric mass density...
Loading historical data...
Loading historical data...
Loading historical data...
Loading historical data...
Loading historical data...
Loading historical data...
Loading historical data...

Documentation

Showing up to 5 results
|